[[{"header":{"parameterUnit":"m.s-1","parameterCategory":1,"la1":30.2991,"la2":30.254,"lo1":-89.0895,"lo2":-89.0444,"dy":0.0017,"dx":0.0017,"nx":28,"ny":28,"refTime":"2024-08-08T09:00:00:Z","depth":0,"parameterNumber":2,"parameterNumberName":"U-component_of_WINDS"},"data":[0,0,0,0,0,0,0,0,0,0,0,0,0,0,0,0,0,0,0,0,0,0,0,0,0,0,0,0,0,0,0,0,0,0,0,0,0,0,0,0,0,0,0,0,0,0,0,0,0,0,0,0,0,0,0,0,0,0,3.3635,3.3635,0,3.3707,3.3708,3.3709,3.3642,3.364,3.3637,3.3634,3.371,3.3714,3.3719,0,0,0,0,0,0,0,0,0,0,0,0,0,3.344,3.3444,3.3634,3.3635,3.3636,3.3707,3.3708,3.3709,3.3643,3.364,3.3636,3.3633,3.3709,3.3714,3.3719,0,0,0,0,0,0,0,0,0,0,0,0,0,3.352,3.3445,3.3634,3.3612,3.361,3.3707,3.3708,3.3709,3.3644,3.364,3.3635,3.3632,3.3707,3.3713,3.372,3.3843,0,0,3.3741,3.3744,0,0,0,0,0,0,0,0,3.3516,3.3527,3.3614,3.3613,3.3612,3.3662,3.3667,3.3754,3.3645,3.3631,3.3634,3.363,3.3697,3.3705,3.3727,3.3846,3.385,3.3741,3.3746,3.3748,3.375,0,0,0,0,0,0,0,3.351,3.3524,3.3663,3.3616,3.3614,3.3599,3.3606,3.3684,3.3686,3.3632,3.3627,3.3637,3.3696,3.3721,3.3728,3.3851,3.3741,3.3747,3.3751,3.3754,3.4077,3.4081,0,0,0,0,0,0,3.3507,3.352,3.3661,3.3665,3.3553,3.3606,3.3613,3.365,3.3685,3.3686,3.364,3.3633,3.3711,3.3721,3.3731,3.3879,3.3748,3.3755,3.3759,3.4073,3.4078,3.4083,0,0,0,0,0,0,3.3503,3.352,3.3658,3.3591,3.3608,3.3613,3.3655,3.3653,3.3678,3.3691,3.3691,3.3665,3.3708,3.3721,3.3816,3.388,3.3758,3.3764,3.4067,3.4074,3.4081,3.4174,0,0,0,0,0,0,3.3498,3.3519,3.3565,3.3593,3.3612,3.3742,3.3659,3.3658,3.369,3.3682,3.3714,3.3716,3.3706,3.3806,3.3823,3.3887,3.3769,3.4062,3.407,3.4078,3.4166,3.4184,3.4199,0,0,0,0,0,3.3491,3.3588,3.3568,3.3585,3.3669,3.3745,3.3756,3.3743,3.3695,3.3742,3.3751,3.3715,3.387,3.3817,3.3835,3.3902,3.4057,3.4068,3.4078,3.4158,3.418,3.4199,0,0,0,0,0,0,3.3568,3.3592,3.3569,3.3678,3.371,3.3734,3.3793,3.3766,3.3812,3.3803,3.3784,3.3792,3.3893,3.3907,3.3846,3.4024,3.3956,3.3971,3.4011,3.4032,3.4049,3.4044,3.3775,0,0,0,0,0,3.3598,3.3657,3.3674,3.3769,3.3787,3.3787,3.382,3.3807,3.3839,3.3853,3.3868,3.3902,3.3958,3.3996,3.4048,3.4167,3.4174,3.4223,3.4239,3.4253,3.4266,3.4332,3.4354,3.4116,3.4116,3.4116,0,0,3.366,3.368,3.3718,3.3785,3.3809,3.3872,3.3799,3.3868,3.3915,3.3863,3.3954,3.3967,3.4003,3.4111,3.4159,3.4126,3.4333,3.4266,3.4277,3.4282,3.4345,3.4367,3.4387,3.4123,3.4122,3.4121,0,0,3.3805,3.3826,3.3908,3.3933,3.3969,3.3969,3.3989,3.4018,3.4024,3.4115,3.4078,3.4134,3.4231,3.4259,3.4286,3.4445,3.4414,3.4462,3.455,3.4614,3.4633,3.4649,3.4708,3.4729,3.4475,3.4475,3.4475,0,3.3878,3.397,3.3953,3.4026,3.4057,3.4014,3.4098,3.4123,3.4175,3.4198,3.416,3.4282,3.4303,3.4418,3.4457,3.448,3.4503,3.4459,3.4631,3.4648,3.4663,3.4719,3.474,3.4481,3.448,3.448,3.4479,0,3.4059,3.4124,3.4186,3.4238,3.4276,3.4354,3.435,3.4391,3.4375,3.4379,3.4474,3.4498,3.4556,3.4582,3.4566,3.4695,3.4674,3.4634,3.4566,3.4692,3.4744,3.4765,3.4489,3.4487,3.4485,3.4484,0,0,3.4254,3.4297,3.432,3.4344,3.4382,3.4432,3.4509,3.4565,3.4602,3.4639,3.4704,3.4789,3.4753,3.4783,3.4771,3.4828,3.4954,3.4781,3.4782,3.4814,3.51,3.5131,3.5155,3.4934,3.4938,3.4941,3.5097,0,3.4402,3.4535,3.4523,3.465,3.4711,3.4671,3.4738,3.4769,3.4776,3.4829,3.4836,3.4897,3.4844,3.4863,3.4917,3.4927,3.5012,3.4915,3.4995,3.4998,3.4989,3.5182,3.5214,3.5361,3.5117,3.5121,3.5123,0,3.4592,3.4638,3.477,3.4801,3.4826,3.4886,3.4938,3.4989,3.5025,3.5026,3.5061,3.504,3.5118,3.5048,3.5157,3.5092,3.5124,3.5135,3.514,3.5148,3.5069,3.5197,3.5407,3.543,3.5155,3.5152,3.515,0,3.4724,3.4818,3.491,3.4931,3.4969,3.5012,3.503,3.5061,3.5097,3.5142,3.5165,3.5219,3.525,3.5293,3.5287,3.5236,3.5399,3.5328,3.5403,3.5404,3.544,3.5438,3.5661,3.5459,3.5458,3.5458,3.5458,0,3.4891,3.4975,3.497,3.5027,3.5119,3.5105,3.5198,3.521,3.5239,3.5298,3.5267,3.5323,3.5312,3.5369,3.5365,3.5457,3.5471,3.5475,3.5473,3.5478,3.5478,3.55,3.549,3.5464,3.5463,3.5461,3.546,0,3.5054,3.5054,3.5152,3.518,3.5189,3.5256,3.528,3.5335,3.5339,3.5415,3.5432,3.5439,3.5505,3.5503,3.5578,3.5575,3.5689,3.5675,3.5677,3.5675,3.5752,3.5745,3.5997,3.603,3.5805,3.5807,3.5809,0,3.5162,3.5225,3.526,3.5297,3.5318,3.5379,3.5415,3.5404,3.5443,3.5489,3.5539,3.5601,3.5651,3.5758,3.577,3.5828,3.5816,3.59,3.5824,3.5828,3.5819,3.5816,3.5823,3.5915,3.5918,3.592,3.5921,0,3.5353,3.535,3.5404,3.5458,3.5502,3.5544,3.5583,3.5616,3.5609,3.5655,3.5722,3.576,3.5837,3.59,3.5956,3.5975,3.5948,3.5945,3.5966,3.5973,3.5973,3.5976,3.572,3.594,3.5938,3.5936,3.5935,3.5935,3.5493,3.5548,3.5582,3.5643,3.5671,3.5708,3.5761,3.5772,3.5828,3.5889,3.5879,3.5955,3.599,3.6062,3.6086,3.6146,3.6116,3.6146,3.6154,3.6162,3.6171,3.5962,3.6156,3.6155,3.6155,3.6154,3.6154,0,3.5684,3.5704,3.576,3.5816,3.5864,3.5834,3.5876,3.5919,3.5985,3.602,3.607,3.6148,3.621,3.6228,3.6288,3.6332,3.6322,3.6348,3.6346,3.6351,3.6193,3.617,3.6356,3.6356,3.6356,3.6356,3.6356,3.6356,3.579,3.5882,3.5884,3.599,3.6009,3.6083,3.611,3.6145,3.6173,3.6261,3.6312,3.6323,3.6352,3.6414,3.647,3.6474,3.6498,3.6531,3.653,3.6382,3.6362,3.6343,3.6321,3.6536,3.6536,3.6683,3.6684,3.6685]},{"header":{"parameterUnit":"m.s-1","parameterCategory":1,"la1":30.2991,"la2":30.254,"lo1":-89.0895,"lo2":-89.0444,"dy":0.0017,"dx":0.0017,"nx":28,"ny":28,"refTime":"2024-08-08T09:00:00:Z","depth":0,"parameterNumber":3,"parameterNumberName":"V-component_of_WINDS"},"data":[0,0,0,0,0,0,0,0,0,0,0,0,0,0,0,0,0,0,0,0,0,0,0,0,0,0,0,0,0,0,0,0,0,0,0,0,0,0,0,0,0,0,0,0,0,0,0,0,0,0,0,0,0,0,0,0,0,0,-3.4613,-3.4615,0,-3.4764,-3.4765,-3.4767,-3.4773,-3.4771,-3.4769,-3.4767,-3.492,-3.4926,-3.4932,0,0,0,0,0,0,0,0,0,0,0,0,0,-3.4329,-3.4334,-3.4613,-3.4615,-3.4617,-3.4763,-3.4765,-3.4767,-3.4773,-3.4771,-3.4769,-3.4767,-3.4919,-3.4925,-3.4932,0,0,0,0,0,0,0,0,0,0,0,0,0,-3.4463,-3.4336,-3.4612,-3.4637,-3.4641,-3.4763,-3.4765,-3.4768,-3.4773,-3.4771,-3.4768,-3.4765,-3.4916,-3.4925,-3.4933,-3.5041,0,0,-3.496,-3.4963,0,0,0,0,0,0,0,0,-3.4456,-3.4474,-3.4632,-3.4636,-3.464,-3.4747,-3.4722,-3.4859,-3.4774,-3.4723,-3.4767,-3.4764,-3.4865,-3.4877,-3.4912,-3.5048,-3.5054,-3.496,-3.4966,-3.4969,-3.4972,0,0,0,0,0,0,0,-3.4446,-3.4467,-3.4672,-3.4634,-3.4639,-3.464,-3.4656,-3.4748,-3.4807,-3.4727,-3.4728,-3.4746,-3.4866,-3.4903,-3.4915,-3.5057,-3.496,-3.4968,-3.4973,-3.4976,-3.5289,-3.5292,0,0,0,0,0,0,-3.4432,-3.4459,-3.4668,-3.4677,-3.4539,-3.4648,-3.4666,-3.4715,-3.4806,-3.4817,-3.4748,-3.4746,-3.489,-3.4905,-3.4921,-3.5053,-3.4969,-3.4977,-3.4982,-3.5286,-3.529,-3.5293,0,0,0,0,0,0,-3.4426,-3.4451,-3.4662,-3.4569,-3.4595,-3.4655,-3.4711,-3.4719,-3.4756,-3.4822,-3.4832,-3.4775,-3.4888,-3.4908,-3.5011,-3.5058,-3.4981,-3.4989,-3.5282,-3.5287,-3.5291,-3.5318,0,0,0,0,0,0,-3.4418,-3.4449,-3.449,-3.4569,-3.46,-3.475,-3.4714,-3.4724,-3.4771,-3.4769,-3.485,-3.486,-3.4888,-3.4998,-3.502,-3.5069,-3.4996,-3.5278,-3.5284,-3.529,-3.5313,-3.5323,-3.5331,0,0,0,0,0,-3.4408,-3.4491,-3.4492,-3.4517,-3.4654,-3.4752,-3.477,-3.48,-3.4775,-3.4817,-3.486,-3.4858,-3.5049,-3.5008,-3.5033,-3.5085,-3.5275,-3.5283,-3.5289,-3.5309,-3.5321,-3.5331,0,0,0,0,0,0,-3.4416,-3.4502,-3.4504,-3.4616,-3.4677,-3.4753,-3.4807,-3.4812,-3.4881,-3.4876,-3.491,-3.4928,-3.503,-3.5068,-3.5021,-3.5194,-3.5159,-3.5172,-3.5166,-3.5178,-3.5187,-3.5175,-3.5003,0,0,0,0,0,-3.443,-3.4503,-3.4575,-3.4666,-3.4697,-3.4747,-3.4791,-3.4809,-3.4873,-3.4899,-3.4949,-3.5011,-3.5085,-3.5134,-3.5206,-3.5318,-3.5336,-3.5366,-3.5375,-3.5382,-3.5393,-3.5455,-3.547,-3.5316,-3.5316,-3.5316,0,0,-3.4461,-3.4518,-3.4562,-3.4669,-3.4719,-3.4794,-3.4769,-3.4849,-3.4905,-3.4911,-3.5011,-3.505,-3.5122,-3.523,-3.528,-3.5264,-3.5439,-3.5391,-3.5397,-3.5403,-3.5464,-3.5478,-3.5491,-3.5321,-3.532,-3.5319,0,0,-3.4556,-3.4606,-3.4688,-3.4738,-3.4813,-3.4846,-3.4866,-3.4942,-3.4968,-3.5069,-3.5076,-3.5143,-3.527,-3.5321,-3.5363,-3.5478,-3.5479,-3.5501,-3.5548,-3.5609,-3.5621,-3.5632,-3.5673,-3.5688,-3.5511,-3.5511,-3.5511,0,-3.4585,-3.4699,-3.4729,-3.481,-3.4857,-3.4867,-3.495,-3.4997,-3.5092,-3.5124,-3.5106,-3.5266,-3.5315,-3.5435,-3.5464,-3.5498,-3.5521,-3.5492,-3.5617,-3.5628,-3.5639,-3.5678,-3.5694,-3.5513,-3.5513,-3.5512,-3.5512,0,-3.4731,-3.4809,-3.4866,-3.4958,-3.5012,-3.5093,-3.5136,-3.5187,-3.52,-3.5235,-3.5338,-3.5397,-3.5481,-3.5511,-3.5525,-3.5634,-3.5622,-3.561,-3.5576,-3.5655,-3.5693,-3.5708,-3.5516,-3.5515,-3.5514,-3.5514,0,0,-3.4834,-3.4943,-3.4963,-3.5005,-3.5089,-3.515,-3.5232,-3.5315,-3.5358,-3.5423,-3.5493,-3.56,-3.559,-3.5638,-3.5658,-3.5711,-3.5799,-3.5692,-3.5695,-3.571,-3.5923,-3.5931,-3.5949,-3.58,-3.5803,-3.5805,-3.5917,0,-3.4939,-3.5085,-3.5115,-3.5241,-3.5315,-3.5325,-3.5397,-3.5456,-3.549,-3.5557,-3.5595,-3.5671,-3.5652,-3.5681,-3.5734,-3.5777,-3.5842,-3.5769,-3.5865,-3.5868,-3.5847,-3.5968,-3.5978,-3.608,-3.5932,-3.5934,-3.5936,0,-3.508,-3.5149,-3.5282,-3.5357,-3.5389,-3.5453,-3.5531,-3.5595,-3.5663,-3.5684,-3.5739,-3.5752,-3.5838,-3.58,-3.5918,-3.5868,-3.5909,-3.5936,-3.594,-3.5951,-3.5907,-3.5982,-3.6114,-3.6129,-3.596,-3.5958,-3.5956,0,-3.5142,-3.5269,-3.5365,-3.5401,-3.549,-3.5535,-3.5574,-3.5639,-3.5687,-3.5756,-3.5787,-3.5865,-3.5907,-3.5967,-3.6001,-3.597,-3.6117,-3.6082,-3.6137,-3.6137,-3.6168,-3.6166,-3.6308,-3.6194,-3.6194,-3.6194,-3.6193,0,-3.5255,-3.5337,-3.5394,-3.5454,-3.5546,-3.558,-3.5669,-3.5708,-3.5766,-3.5833,-3.5847,-3.5909,-3.5951,-3.602,-3.6047,-3.6141,-3.616,-3.618,-3.6186,-3.6179,-3.6176,-3.6206,-3.62,-3.6198,-3.6197,-3.6196,-3.6195,0,-3.5341,-3.5383,-3.5489,-3.5565,-3.5586,-3.565,-3.5715,-3.5773,-3.5808,-3.5893,-3.5915,-3.597,-3.6051,-3.6092,-3.6193,-3.6211,-3.6317,-3.6319,-3.6295,-3.6297,-3.6351,-3.6345,-3.6518,-3.6542,-3.6412,-3.6413,-3.6414,0,-3.541,-3.5474,-3.5557,-3.5603,-3.5643,-3.5717,-3.5767,-3.5802,-3.5853,-3.5935,-3.5983,-3.6066,-3.6133,-3.6263,-3.6312,-3.6389,-3.6393,-3.6448,-3.6405,-3.6395,-3.6394,-3.639,-3.6397,-3.6456,-3.6457,-3.6458,-3.6459,0,-3.553,-3.5547,-3.5618,-3.5696,-3.5755,-3.5818,-3.588,-3.5917,-3.5963,-3.602,-3.6103,-3.6156,-3.6259,-3.6341,-3.6422,-3.6462,-3.6469,-3.6472,-3.6489,-3.6482,-3.6466,-3.6476,-3.6316,-3.6468,-3.6467,-3.6466,-3.6466,-3.6466,-3.561,-3.5667,-3.5734,-3.5812,-3.5863,-3.5921,-3.5979,-3.6022,-3.6092,-3.618,-3.6197,-3.6285,-3.6352,-3.6461,-3.6504,-3.6574,-3.6562,-3.6587,-3.6593,-3.6598,-3.6601,-3.6455,-3.6589,-3.6589,-3.6589,-3.6588,-3.6588,0,-3.573,-3.5774,-3.5846,-3.5933,-3.5994,-3.5995,-3.6064,-3.6116,-3.6194,-3.6255,-3.6322,-3.6418,-3.6497,-3.6552,-3.6633,-3.6678,-3.6683,-3.6698,-3.6695,-3.6705,-3.6607,-3.6585,-3.6693,-3.6693,-3.6693,-3.6693,-3.6693,-3.6693,-3.58,-3.5896,-3.5922,-3.6043,-3.6087,-3.6174,-3.6213,-3.6267,-3.6316,-3.6423,-3.6489,-3.6525,-3.6584,-3.6669,-3.6742,-3.6756,-3.6785,-3.68,-3.6814,-3.6722,-3.6711,-3.6701,-3.668,-3.6806,-3.6806,-3.6906,-3.6907,-3.6907]}]]